Santander Airport, Spain

12:35 AM CEST on April 30, 2017 (GMT +0200)
Santander Airport

Weather History for LEXJ - November, 2011

Change the Weather History Date:

Tuesday, November 22, 2011

  Actual Average Record
Temperature  
Mean Temperature 55 °F -  
Max Temperature 57 °F 54 °F 67 °F (2014)
Min Temperature 53 °F 44 °F 28 °F (1998)
Degree Days  
Heating Degree Days 10    
Growing Degree Days 5 (Base 50)    
Moisture  
Dew Point 53 °F    
Average Humidity 94    
Maximum Humidity 100    
Minimum Humidity 82    
Precipitation  
Precipitation 0.00 in - - ()
Sea Level Pressure  
Sea Level Pressure 30.05 in    
Wind  
Wind Speed 9 mph ()    
Max Wind Speed 14 mph    
Max Gust Speed -    
Visibility 6.1 miles    
Events Rain    
Averages and records for this station are not official NWS values.
T = Trace of Precipitation, MM = Missing Value Source: Averaged Metar Reports

Daily Weather History Graph

Daily Weather History Graph

Search for Another Location

Airport or City:

Trip Planner

Search our weather history database for the weather conditions in past years. The results will help you decide how hot, cold, wet, or windy it might be!

Date:

Astronomy

Nov. 22, 2011 Rise Set
Actual Time 8:17 AM CET 5:45 PM CET
Civil Twilight 7:45 AM CET 6:16 PM CET
Nautical Twilight 7:10 AM CET 6:51 PM CET
Astronomical Twilight 6:36 AM CET 7:25 PM CET
Moon 4:45 AM CET (11/22) 3:38 PM CET (11/22)
Length of Visible Light 10h 30m
Length of Day
9h 28m
Waning Crescent, 11% of the Moon is Illuminated
Nov 22
Waning Crescent
Nov 25
New
Dec 2
First Quarter
Dec 10
Full
Dec 18
Last Quarter

Hourly Weather History & Observations

Time (CET) Temp. Dew Point Humidity Pressure Visibility Wind Dir Wind Speed Gust Speed Precip Events Conditions
5:30 AM 55.4 °F 53.6 °F 94% 29.89 in 6.2 mi WSW 13.8 mph - N/A Rain Light Rain
6:00 AM 53.6 °F 53.6 °F 100% 29.89 in 6.2 mi WSW 11.5 mph - N/A Rain Light Rain
6:30 AM 53.6 °F 53.6 °F 100% 29.92 in 6.2 mi WSW 11.5 mph - N/A Rain Light Rain
7:00 AM 53.6 °F 51.8 °F 94% 29.92 in 6.2 mi WSW 12.7 mph - N/A Rain Light Rain
7:30 AM 53.6 °F 51.8 °F 94% 29.95 in 6.2 mi WSW 9.2 mph - N/A Rain Light Rain
8:00 AM 53.6 °F 51.8 °F 94% 29.95 in 6.2 mi WSW 10.4 mph - N/A Rain Light Rain
8:30 AM 53.6 °F 51.8 °F 94% 29.95 in 6.2 mi WSW 10.4 mph - N/A   Mostly Cloudy
9:00 AM 53.6 °F 51.8 °F 94% 29.98 in 6.2 mi WSW 8.1 mph - N/A   Mostly Cloudy
9:30 AM 53.6 °F 51.8 °F 94% 29.98 in 6.2 mi WSW 9.2 mph - N/A   Mostly Cloudy
10:00 AM 53.6 °F 51.8 °F 94% 30.01 in 6.2 mi WSW 10.4 mph - N/A   Mostly Cloudy
10:30 AM 53.6 °F 51.8 °F 94% 30.01 in 6.2 mi WSW 10.4 mph - N/A   Mostly Cloudy
11:00 AM 53.6 °F 51.8 °F 94% 30.04 in 6.2 mi WSW 10.4 mph - N/A   Mostly Cloudy
11:30 AM 55.4 °F 51.8 °F 88% 30.04 in 6.2 mi WSW 10.4 mph - N/A   Mostly Cloudy
12:00 PM 55.4 °F 51.8 °F 88% 30.04 in 6.2 mi WSW 9.2 mph - N/A   Mostly Cloudy
12:30 PM 55.4 °F 51.8 °F 88% 30.04 in 6.2 mi WSW 11.5 mph - N/A   Mostly Cloudy
1:00 PM 57.2 °F 51.8 °F 82% 30.04 in 6.2 mi West 10.4 mph - N/A   Mostly Cloudy
1:30 PM 55.4 °F 51.8 °F 88% 30.04 in 6.2 mi West 12.7 mph - N/A   Mostly Cloudy
2:00 PM 55.4 °F 53.6 °F 94% 30.04 in 6.2 mi West 12.7 mph - N/A   Mostly Cloudy
2:30 PM 55.4 °F 53.6 °F 94% 30.04 in 6.2 mi West 11.5 mph - N/A   Mostly Cloudy
3:00 PM 55.4 °F 53.6 °F 94% 30.04 in 6.2 mi West 13.8 mph - N/A   Mostly Cloudy
3:30 PM 55.4 °F 53.6 °F 94% 30.06 in 6.2 mi West 10.4 mph - N/A   Mostly Cloudy
4:00 PM 55.4 °F 53.6 °F 94% 30.06 in 6.2 mi West 11.5 mph - N/A   Mostly Cloudy
4:30 PM 55.4 °F 53.6 °F 94% 30.06 in 6.2 mi West 12.7 mph - N/A   Mostly Cloudy
5:00 PM 55.4 °F 53.6 °F 94% 30.06 in 2.5 mi West 11.5 mph - N/A Rain Light Rain
5:30 PM 55.4 °F 53.6 °F 94% 30.09 in 5.0 mi West 10.4 mph - N/A   Mostly Cloudy
6:00 PM 55.4 °F 53.6 °F 94% 30.09 in 6.2 mi West 9.2 mph - N/A   Mostly Cloudy
6:30 PM 55.4 °F 53.6 °F 94% 30.12 in 6.2 mi WSW 6.9 mph - N/A Rain Light Rain
7:00 PM 55.4 °F 53.6 °F 94% 30.12 in 6.2 mi SW 1.2 mph - N/A   Mostly Cloudy
7:30 PM 55.4 °F 53.6 °F 94% 30.12 in 6.2 mi Variable 2.3 mph - N/A   Mostly Cloudy
8:00 PM 55.4 °F 53.6 °F 94% 30.12 in 6.2 mi SW 5.8 mph - N/A   Mostly Cloudy
8:30 PM 55.4 °F 53.6 °F 94% 30.15 in 6.2 mi SW 4.6 mph - N/A   Mostly Cloudy
9:00 PM 55.4 °F 55.4 °F 100% 30.15 in 6.2 mi WSW 5.8 mph - N/A   Mostly Cloudy
9:30 PM 55.4 °F 55.4 °F 100% 30.15 in 6.2 mi WSW 6.9 mph - N/A   Mostly Cloudy
10:00 PM 55.4 °F 55.4 °F 100% 30.18 in 6.2 mi West 5.8 mph - N/A   Mostly Cloudy
10:30 PM 55.4 °F 55.4 °F 100% 30.18 in 6.2 mi SSW 3.5 mph - N/A   Scattered Clouds
11:00 PM 55.4 °F 55.4 °F 100% 30.18 in 6.2 mi Variable 2.3 mph - N/A   Scattered Clouds